EW5807 Weather Reports


Display with metric or nautical units.
time (UTC)temp
F
wind
direction
speed
MPH
gust
MPH
rain 1hr
in
rain 24hr
in
rain mn
in
humidity
%
barometer
mb
20260906153049 58 240 0.0 4.0 0.00 0.00 0.00 33 1010.0
20260906151547 56 264 0.0 2.0 0.00 0.00 0.00 36 1010.1
20260906150055 54 259 0.0 2.0 0.00 0.00 0.00 38 1010.2
20260906144557 54 290 3.0 5.0 0.00 0.00 0.00 37 1010.1
20260906143042 53 329 0.0 4.0 0.00 0.00 0.00 38 1010.1
20260906141545 50 245 0.0 3.0 0.00 0.00 0.00 42 1009.9
20260906140039 47 63 0.0 0.0 0.00 0.00 0.00 48 1009.9
20260906134538 45 64 0.0 2.0 0.00 0.00 0.00 50 1009.8
20260906133032 45 57 0.0 0.0 0.00 0.00 0.00 46 1009.7
20260906131531 46 58 0.0 1.0 0.00 0.00 0.00 46 1009.6
20260906130059 45 53 0.0 2.0 0.00 0.00 0.00 47 1009.6
20260906124557 46 58 0.0 2.0 0.00 0.00 0.00 45 1009.5
20260906123053 47 56 0.0 2.0 0.00 0.00 0.00 44 1009.4
20260906121552 48 40 0.0 2.0 0.00 0.00 0.00 42 1009.5
20260906120053 47 56 0.0 3.0 0.00 0.00 0.00 43 1009.5
20260906114550 48 58 1.0 3.0 0.00 0.00 0.00 42 1009.4
20260906113043 50 333 0.0 1.0 0.00 0.00 0.00 41 1009.4
20260906111547 50 288 0.0 0.0 0.00 0.00 0.00 40 1009.3
20260906110044 50 307 0.0 1.0 0.00 0.00 0.00 38 1009.3
20260906104541 53 252 0.0 7.0 0.00 0.00 0.00 33 1009.3
20260906103009 53 242 2.0 7.0 0.00 0.00 0.00 35 1009.3
20260906101506 50 199 0.0 0.0 0.00 0.00 0.00 38 1009.3
20260906100034 50 207 0.0 0.0 0.00 0.00 0.00 37 1009.2
20260906094554 52 224 1.0 4.0 0.00 0.00 0.00 35 1009.0
20260906093034 54 213 1.0 5.0 0.00 0.00 0.00 33 1009.0
20260906091530 52 232 2.0 6.0 0.00 0.00 0.00 36 1009.0
20260906090027 50 191 0.0 1.0 0.00 0.00 0.00 41 1009.1
20260906084533 50 330 0.0 1.0 0.00 0.00 0.00 47 1008.9
20260906083020 51 273 0.0 1.0 0.00 0.00 0.00 44 1008.9
20260906081539 50 210 0.0 0.0 0.00 0.00 0.00 48 1008.8
20260906080017 53 205 0.0 5.0 0.00 0.00 0.00 44 1008.7
20260906074514 54 214 1.0 3.0 0.00 0.00 0.00 44 1008.8
20260906073039 55 151 0.0 3.0 0.00 0.00 0.00 43 1008.8
20260906071537 55 157 0.0 0.0 0.00 0.00 0.00 43 1008.7
20260906070032 56 143 0.0 3.0 0.00 0.00 0.00 43 1008.6
20260906064531 55 142 0.0 3.0 0.00 0.00 0.00 43 1008.8
20260906063033 56 153 0.0 3.0 0.00 0.00 0.00 42 1008.7
20260906061534 57 131 2.0 3.0 0.00 0.00 0.00 42 1008.5
20260906060020 56 195 0.0 0.0 0.00 0.00 0.00 44 1008.4
20260906054519 56 75 0.0 0.0 0.00 0.00 0.00 42 1008.4
20260906053018 56 75 0.0 0.0 0.00 0.00 0.00 42 1008.2
20260906051513 59 136 0.0 1.0 0.00 0.00 0.00 38 1008.2
20260906050008 61 174 0.0 1.0 0.00 0.00 0.00 37 1008.2
20260906044508 61 132 0.0 0.0 0.00 0.00 0.00 37 1008.0
20260906043006 61 138 0.0 1.0 0.00 0.00 0.00 37 1007.9
20260906041505 60 133 0.0 2.0 0.00 0.00 0.00 37 1007.9
20260906040130 62 189 0.0 1.0 0.00 0.00 0.00 35 1007.8
20260906034603 63 146 1.0 3.0 0.00 0.00 0.00 34 1007.7
20260906033051 64 152 1.0 4.0 0.00 0.00 0.00 33 1007.5
20260906031551 66 139 0.0 1.0 0.00 0.00 0.00 32 1007.2
20260906030044 66 126 0.0 3.0 0.00 0.00 0.00 31 1007.0
20260906024542 68 140 0.0 0.0 0.00 0.00 0.00 29 1006.6
20260906023034 69 263 0.0 1.0 0.00 0.00 0.00 28 1006.3
20260906021530 71 271 1.0 5.0 0.00 0.00 0.00 27 1006.0
20260906020059 73 293 3.0 7.0 0.00 0.00 0.00 25 1005.8
20260906014557 76 310 4.0 12.0 0.00 0.00 0.00 24 1005.7
20260906013045 78 303 8.0 12.0 0.00 0.00 0.00 22 1005.3
20260906011542 79 299 7.0 11.0 0.00 0.00 0.00 20 1005.5
20260906010039 80 202 7.0 15.0 0.00 0.00 0.00 13 1005.4
20260906004537 80 247 10.0 15.0 0.00 0.00 0.00 14 1005.4
20260906003034 79 208 12.0 19.0 0.00 0.00 0.00 15 1005.5
20260906001533 79 124 4.0 12.0 0.00 0.00 0.00 15 1005.4
20260906000028 79 218 10.0 16.0 0.00 0.00 0.00 16 1005.6
20260905234527 79 208 5.0 14.0 0.00 0.00 0.00 16 1005.9
20260905233031 79 215 10.0 16.0 0.00 0.00 0.00 15 1005.8
20260905231524 80 205 7.0 17.0 0.00 0.00 0.00 15 1006.0
20260905230022 82 221 8.0 18.0 0.00 0.00 0.00 14 1006.0
20260905224522 81 124 7.0 16.0 0.00 0.00 0.00 15 1006.1
20260905223033 82 226 10.0 20.0 0.00 0.00 0.00 15 1006.3
20260905221550 82 228 12.0 18.0 0.00 0.00 0.00 16 1006.5
20260905220053 82 188 12.0 18.0 0.00 0.00 0.00 17 1006.8
20260905214545 81 239 10.0 17.0 0.00 0.00 0.00 16 1006.9
20260905213044 81 242 7.0 18.0 0.00 0.00 0.00 17 1007.2
20260905211546 80 226 6.0 12.0 0.00 0.00 0.00 19 1007.6
20260905210058 79 185 5.0 11.0 0.00 0.00 0.00 21 1007.9
20260905204537 79 233 7.0 17.0 0.00 0.00 0.00 20 1008.1
20260905203038 78 204 4.0 14.0 0.00 0.00 0.00 21 1008.2
20260905201538 78 219 6.0 14.0 0.00 0.00 0.00 21 1008.3
20260905200050 77 244 6.0 11.0 0.00 0.00 0.00 23 1008.5
20260905194535 76 241 3.0 11.0 0.00 0.00 0.00 25 1008.7
20260905193031 75 243 3.0 11.0 0.00 0.00 0.00 27 1009.0
20260905191530 74 244 2.0 7.0 0.00 0.00 0.00 28 1009.3
20260905190031 73 58 0.0 4.0 0.00 0.00 0.00 31 1009.5
20260905184533 72 158 3.0 12.0 0.00 0.00 0.00 33 1010.0
20260905183028 70 217 2.0 6.0 0.00 0.00 0.00 35 1010.3
20260905181527 68 220 0.0 6.0 0.00 0.00 0.00 38 1010.4
20260905180029 67 354 1.0 6.0 0.00 0.00 0.00 39 1010.6
20260905174601 66 240 0.0 8.0 0.00 0.00 0.00 40 1010.7
20260905173053 64 56 1.0 5.0 0.00 0.00 0.00 44 1010.8
20260905171603 62 338 0.0 7.0 0.00 0.00 0.00 47 1010.9
20260905170056 60 60 4.0 8.0 0.00 0.00 0.00 49 1010.9
20260905164550 59 34 2.0 6.0 0.00 0.00 0.00 51 1011.1
20260905163051 59 338 0.0 5.0 0.00 0.00 0.00 52 1011.1
20260905161546 57 55 2.0 5.0 0.00 0.00 0.00 55 1011.1
20260905160050 56 94 4.0 8.0 0.00 0.00 0.00 56 1011.2
20260905154553 55 347 2.0 8.0 0.00 0.00 0.00 58 1011.2